Hourly Weather Roundup
Issued by NWS Central Illinois

Home | Current Version | Previous Version | Text Only | Print | Product List | Glossary On
Versions: 1 2 3 4 5 6 7 8 9 10 11 12 13 14 15 16 17 18 19 20 21 22 23 24 25 26 27 28 29 30 31 32 33 34 35 36 37 38 39 40 41 42 43 44 45 46 47 48 49 50
000
NZUS43 KILX 231210
HWRILX

AREA WEATHER ROUNDUP
NATIONAL WEATHER SERVICE, LINCOLN IL
700 AM CDT WED JUL 23 2014


CITY           SKY/WX    TMP DP  RH WIND       PRES   REMARKS
BLOOMINGTON    PTSUNNY   66  60  81 NE18      30.08R
CHAMPAIGN      PTSUNNY   70  66  87 NE13G23   30.04R
6HR MIN TEMP:  70; 6HR MAX TEMP:  75;

DECATUR        MOSUNNY   75  73  94 N14       30.04R
FLORA          NOT AVBL
GALESBURG      SUNNY     68  66  93 N12       30.10R
JACKSONVILLE   SUNNY     75  72  90 N9        30.05R
6HR MIN TEMP:  74; 6HR MAX TEMP:  79;

LACON          MOSUNNY   67  60  77 N8G16     30.09R
6HR MIN TEMP:  67; 6HR MAX TEMP:  78;

LAWRENCEVILLE  LGT RAIN  69  67  93 S10       30.05S
6HR MIN TEMP:  68; 6HR MAX TEMP:  73; 6HR PCP:  0.97;

LITCHFIELD     MOSUNNY   74  72  96 N7        30.02R FOG
$$


CITY           SKY/WX    TMP DP  RH WIND       PRES   REMARKS
LINCOLN        MOSUNNY   73  69  87 N8        30.02R
6HR MIN TEMP:  73; 6HR MAX TEMP:  80;

MACOMB         SUNNY     69  67  92 N9        30.10R
MATTOON        CLOUDY    75  70  84 CALM      30.02R
6HR MIN TEMP:  72; 6HR MAX TEMP:  76;

MT CARMEL AP   TSTM      70  68  94 SE8       30.04F
OLNEY-NOBLE AP TSTM      68  68 100 CALM      30.02S
PARIS          PTSUNNY   73  71  93 CALM      30.04R FOG
6HR MIN TEMP:  71; 6HR MAX TEMP:  74;

PEORIA         MOSUNNY   74  64  71 NE13      30.07R
6HR MIN TEMP:  74; 6HR MAX TEMP:  81;

PONTIAC        SUNNY     66  61  82 N8        30.08R
RANTOUL        SUNNY     70  61  73 N15       30.07R
6HR MIN TEMP:  70; 6HR MAX TEMP:  77;

ROBINSON       CLOUDY    69  68  95 W5        30.04R
6HR MIN TEMP:  69; 6HR MAX TEMP:  74; 6HR PCP:  0.07;

SPRINGFIELD    CLOUDY    76  72  87 N13       30.03R
6HR MIN TEMP:  76; 6HR MAX TEMP:  79;

TAYLORVILLE    MOSUNNY   73  72  94 N8        30.02R FOG
$$

...REGIONAL REPORTS...


CITY           SKY/WX    TMP DP  RH WIND       PRES   REMARKS
CHICAGO O`HARE MOSUNNY   65  52  62 N17       30.11R
KANKAKEE       MOSUNNY   65  58  78 N12G21    30.07S
MOLINE         SUNNY     70  63  78 NE7       30.12R
MOUNT VERNON   PTSUNNY   75  66  73 SW5       30.02R
PITTSFIELD     SUNNY     74  69  84 N9        30.06R
QUINCY         SUNNY     71  68  90 N10       30.07R
ROCKFORD       MOSUNNY   65  56  72 NE14      30.17R
$$


CITY           SKY/WX    TMP DP  RH WIND       PRES   REMARKS
BURLINGTON     SUNNY     71  66  84 N15       30.10R
CEDAR RAPIDS   SUNNY     68  61  78 NE10      30.14S
DES MOINES     CLEAR     68  59  73 N7        30.17R
KIRKSVILLE     CLEAR     70  65  84 N9        30.13R
OTTUMWA        SUNNY     67  63  87 N6        30.14R
ST LOUIS       MOSUNNY   80  75  84 N7        30.01S HX  85
$$


CITY           SKY/WX    TMP DP  RH WIND       PRES   REMARKS
TERRE HAUTE    CLOUDY    74  70  87 SW6       30.03R
EVANSVILLE     SUNNY     75  69  81 N3        30.08R
INDIANAPOLIS   PTSUNNY   72  68  87 S16       29.98F
LAFAYETTE      CLOUDY    71  69  93 N9        30.03R FOG
MADISON        SUNNY     62  56  80 N7        30.18R
MILWAUKEE      SUNNY     62  54  74 N13G22    30.15R
$$




USA.gov is the U.S. government's official web portal to all federal, state and local government web resources and services.